Location: Newark
(34.3481°N, 134.0494°E)
Time: 08:06:43
(UTC+00:00)

Vanguard 3 - Pass Details

Date: 01 February 2020
Orbit: 508 x 3263 km, 33.3° (Epoch: 17 February)

Event Time Altitude Azimuth Distance (km) Brightness Sun altitude
Rises 07:37:03 0° 256° (WSW) 6,304 13.5 9.6°
Reaches altitude 10° 07:40:45 10° 256° (WSW) 5,553 13.5 8.9°
Maximum altitude 07:59:21 85° 171° (S) 3,273 10.4 5.5°
Drops below altitude 10° 08:18:23 10° 86° (E) 5,658 10.9 1.9°
Sets 08:22:12 0° 86° (E) 6,422 11.1 1.2°
